User: anonymous   Login
Location: Boussy-Saint-Antoine
(48.6830°N, 2.5330°E)
Time: 18:13:45
(UTC+02:00)
Language:

RS-15 - Orbit

View from above orbital plane
View from above orbital plane
View from above satellite
View from above satellite

Ground track
Ground track

The orbit data is extracted from the following two-line orbital elements,

1 23439U 94085A   19199.84823684 -.00000014 +00000-0 +80006-3 0  9992
2 23439 064.8179 067.3589 0146176 107.3240 254.3732 11.27568477011295
Epoch (UTC): 18 July 2019 20:21:27
Eccentricity: 0.0146176
inclination: 64.8179°
perigee height: 1899 km
apogee height: 2145 km
right ascension of ascending node: 67.3589°
argument of perigee: 107.3240°
revolutions per day: 11.27568477
mean anomaly at epoch: 254.3732°
orbit number at epoch: 1129

The dashed part of the orbit path shows where the satellite is in the earth's shadow,  

DLR